EDT,Max TemperatureF,Mean TemperatureF,Min TemperatureF,Max Dew PointF,MeanDew PointF,Min DewpointF,Max Humidity, Mean Humidity, Min Humidity, Max Sea Level PressureIn, Mean Sea Level PressureIn, Min Sea Level PressureIn, Max VisibilityMiles, Mean VisibilityMiles, Min VisibilityMiles, Max Wind SpeedMPH, Mean Wind SpeedMPH, Max Gust SpeedMPH,PrecipitationIn, CloudCover, Events, WindDirDegrees
2013-3-1,46,40,34,36,31,25,92,72,44,29.75,29.65,29.58,10,10,9,15,9,21,0.03,7,Rain,314
2013-3-2,39,36,34,27,24,22,67,59,50,29.75,29.72,29.68,10,10,10,16,11,23,0.00,8,,318
2013-3-3,37,34,30,25,21,18,70,61,46,29.71,29.69,29.65,10,10,10,17,12,25,0.00,7,,314
2013-3-4,43,36,30,21,19,17,61,52,38,29.85,29.75,29.70,10,10,10,21,16,32,0.00,3,,308
2013-3-5,46,38,26,29,23,19,81,57,41,30.05,29.98,29.86,10,10,10,20,11,28,0.00,2,,341
2013-3-6,44,40,36,34,32,30,83,75,65,30.01,29.90,29.84,10,10,6,33,16,46,0.03,7,Rain,48
2013-3-7,39,36,33,32,30,28,92,85,70,30.01,29.93,29.85,10,4,1,29,22,44,0.27,8,Rain-Snow,360
2013-3-8,39,35,33,32,30,26,92,86,60,30.12,29.99,29.94,10,4,0,21,14,30,0.18,8,Fog-Rain-Snow,347
2013-3-9,41,38,36,25,23,22,60,57,47,30.23,30.17,30.12,10,10,10,18,15,25,0.00,0,,354
2013-3-9,,,,,,,,,,,,,,,,,,,,,,
2013-3-11,,,,,,,,,,,,,,,,,,,,,,
2013-3-12,52,48,46,50,47,44,100,91,80,30.03,29.82,29.74,10,4,1,23,13,36,0.65,8,Rain,173
2013-3-13,52,40,30,40,28,21,96,59,33,29.88,29.84,29.79,10,10,10,18,10,31,0.00,4,,300
2013-3-14,37,34,28,25,14,9,70,46,33,29.93,29.87,29.84,10,10,10,25,13,38,0.00,4,,300
2013-3-15,44,36,28,27,16,8,62,44,28,29.96,29.86,29.74,10,10,10,20,10,30,0.00,4,,267
2013-3-16,39,33,27,30,25,16,92,74,41,29.91,29.84,29.78,10,6,1,12,5,,0.04,7,Snow,339
2013-3-17,37,28,19,30,16,9,92,56,31,30.31,30.11,29.92,10,10,6,18,6,25,0.00,1,,335
2013-3-18,36,31,26,32,18,8,89,58,35,30.44,30.29,30.08,10,8,1,16,9,29,0.19,4,Rain-Snow,77
2013-3-19,42,39,34,40,36,30,93,90,85,29.98,29.77,29.64,10,6,2,20,15,33,0.50,8,Rain,45
2013-3-20,46,35,25,30,21,16,85,55,34,29.86,29.83,29.80,10,10,10,24,10,32,0.00,4,,261
2013-3-21,37,32,26,27,24,20,89,71,53,29.85,29.71,29.64,10,8,1,16,7,24,0.00,7,Snow,346
2013-3-22,43,31,19,20,16,10,69,48,33,29.86,29.77,29.71,10,10,10,21,11,29,0.00,2,,285
2013-3-23,48,36,27,21,18,15,66,44,30,29.91,29.83,29.77,10,10,10,24,14,34,0.00,1,,288
2013-3-24,46,36,27,26,20,15,73,52,37,29.94,29.84,29.74,10,10,10,18,8,29,0.00,0,,298
2013-3-25,43,36,30,32,29,23,87,75,55,29.74,29.57,29.45,10,9,2,21,9,37,0.02,6,Rain-Snow,32
2013-3-26,50,40,27,32,28,19,92,75,36,29.85,29.68,29.57,10,10,10,20,8,22,0.00,7,Rain,331
2013-3-27,52,38,23,25,22,17,78,49,27,29.93,29.88,29.84,10,10,10,14,6,22,0.00,2,,308
2013-3-28,53,44,39,33,30,25,65,54,46,30.09,30.01,29.93,10,10,10,17,10,25,0.00,7,Rain,320
2013-3-29,57,46,33,33,28,23,68,51,29,30.12,30.09,30.04,10,10,10,17,9,23,0.00,4,,298
2013-3-30,57,41,25,31,25,18,85,56,22,30.15,30.12,30.08,10,10,10,15,5,23,0.00,0,,287
2013-3-31,51,37,23,45,25,19,100,85,52,30.16,30.11,29.66,10,4,0,9,1,17,0.03,3,Fog-Rain,175